Location: Unspecified
(0.0000°N, 0.0000°E)
Time: 18:36:23
(UTC+00:00)

Vanguard 2 Rocket - Pass Details

Date: 20 January 2020
Orbit: 554 x 3327 km, 32.9° (Epoch: 20 February)

Event Time Altitude Azimuth Distance (km) Brightness Sun altitude
Rises 12:33:07 0° 316° (NW) 5,600 10.8 69.1°
Reaches altitude 10° 12:36:23 10° 320° (NW) 4,912 10.6 68.9°
Maximum altitude 12:51:46 59° 37° (NE) 3,408 10.4 67.5°
Drops below altitude 10° 13:11:44 10° 112° (ESE) 6,219 11.2 64.9°
Sets 13:16:27 0° 116° (ESE) 7,109 11.4 64.2°
